"Period start","avg(HW err(1)/warn(2) (#))","avg(Visibility (m))","avg(Weather code (#))","avg(Precip intensity (mm/h))","min(HW err(1)/warn(2) (#))","max(HW err(1)/warn(2) (#))","std(HW err(1)/warn(2) (#))","med(HW err(1)/warn(2) (#))","min(Visibility (m))","max(Visibility (m))","std(Visibility (m))","med(Visibility (m))","min(Weather code (#))","max(Weather code (#))","std(Weather code (#))","med(Weather code (#))","min(Precip intensity (mm/h))","max(Precip intensity (mm/h))","std(Precip intensity (mm/h))","med(Precip intensity (mm/h))"
2013-08-30 00:00:00,2,27364,0,0.00,0,2,1,2,22325,36750,3577,26096,0,0,0,0,0.00,0.00,0.00,0.00
2013-08-30 00:10:00,1,29682,0,0.00,0,2,1,0,24508,39472,4325,28718,0,0,0,0,0.00,0.00,0.00,0.00
2013-08-30 00:20:00,0,34380,0,0.00,0,0,0,0,29431,40066,3253,35102,0,0,0,0,0.00,0.00,0.00,0.00
2013-08-30 00:30:00,0,33674,0,0.00,0,0,0,0,30394,38743,2333,32968,0,0,0,0,0.00,0.00,0.00,0.00
2013-08-30 00:40:00,0,37418,0,0.00,0,0,0,0,23951,47507,7797,39462,0,0,0,0,0.00,0.00,0.00,0.00
2013-08-30 00:50:00,0,37771,0,0.00,0,0,0,0,27953,49424,7106,35594,0,0,0,0,0.00,0.00,0.00,0.00
2013-08-30 01:00:00,0,37164,0,0.00,0,0,0,0,28746,44078,3810,36834,0,0,0,0,0.00,0.00,0.00,0.00
2013-08-30 01:10:00,0,42831,0,0.00,0,0,0,0,35440,48043,3667,43270,0,0,0,0,0.00,0.00,0.00,0.00
2013-08-30 01:20:00,0,40043,0,0.00,0,0,0,0,31918,48187,5504,38536,0,0,0,0,0.00,0.00,0.00,0.00
2013-08-30 01:30:00,0,34733,0,0.00,0,0,0,0,28923,41460,4535,34221,0,0,0,0,0.00,0.00,0.00,0.00
2013-08-30 01:40:00,0,39584,0,0.00,0,0,0,0,30631,47687,4704,39704,0,0,0,0,0.00,0.00,0.00,0.00
2013-08-30 01:50:00,0,39458,0,0.00,0,0,0,0,31873,46162,4154,40171,0,0,0,0,0.00,0.00,0.00,0.00
2013-08-30 02:00:00,0,42597,0,0.00,0,0,0,0,30372,50000,6319,44426,0,0,0,0,0.00,0.00,0.00,0.00
2013-08-30 02:10:00,0,36491,0,0.00,0,0,0,0,28883,44959,5654,34772,0,0,0,0,0.00,0.00,0.00,0.00
2013-08-30 02:20:00,0,42206,0,0.00,0,0,0,0,35561,50000,4511,42066,0,0,0,0,0.00,0.00,0.00,0.00
2013-08-30 02:30:00,0,40154,0,0.00,0,0,0,0,31088,45364,4414,41270,0,0,0,0,0.00,0.00,0.00,0.00
2013-08-30 02:40:00,0,45332,0,0.00,0,0,0,0,40554,50000,3107,46522,0,0,0,0,0.00,0.00,0.00,0.00
2013-08-30 02:50:00,0,37506,0,0.00,0,0,0,0,25668,46725,6610,38701,0,0,0,0,0.00,0.00,0.00,0.00
2013-08-30 03:00:00,0,46434,0,0.00,0,0,0,0,44034,50000,1928,46457,0,0,0,0,0.00,0.00,0.00,0.00
2013-08-30 03:10:00,0,42773,0,0.00,0,0,0,0,35900,49314,4969,44214,0,0,0,0,0.00,0.00,0.00,0.00
2013-08-30 03:20:00,0,37401,0,0.00,0,0,0,0,28998,48916,6337,35843,0,0,0,0,0.00,0.00,0.00,0.00
2013-08-30 03:30:00,0,43172,0,0.00,0,0,0,0,36678,50000,5052,41928,0,0,0,0,0.00,0.00,0.00,0.00
2013-08-30 03:40:00,0,46446,0,0.00,0,0,0,0,38171,50000,3575,47689,0,0,0,0,0.00,0.00,0.00,0.00
2013-08-30 03:50:00,0,39543,0,0.00,0,0,0,0,29924,49437,5925,39844,0,0,0,0,0.00,0.00,0.00,0.00
2013-08-30 04:00:00,0,35040,0,0.00,0,2,1,0,28045,44415,4693,34593,0,0,0,0,0.00,0.00,0.00,0.00
2013-08-30 04:10:00,2,35544,0,0.00,0,2,1,2,26948,44973,6306,35148,0,0,0,0,0.00,0.00,0.00,0.00
2013-08-30 04:20:00,2,35738,0,0.00,0,2,1,2,21366,46556,7710,37054,0,0,0,0,0.00,0.00,0.00,0.00
2013-08-30 04:30:00,2,31328,0,0.00,2,2,0,2,23292,37650,3994,31904,0,0,0,0,0.00,0.00,0.00,0.00
2013-08-30 04:40:00,2,37994,0,0.00,2,2,0,2,32879,45197,3168,38210,0,0,0,0,0.00,0.00,0.00,0.00
2013-08-30 04:50:00,2,30868,0,0.00,2,2,0,2,26890,38730,3471,30475,0,0,0,0,0.00,0.00,0.00,0.00
2013-08-30 05:00:00,2,33463,0,0.00,0,2,1,2,26859,38646,3297,32754,0,0,0,0,0.00,0.00,0.00,0.00
2013-08-30 05:10:00,2,40948,0,0.00,0,2,1,2,26373,50000,8557,42207,0,0,0,0,0.00,0.00,0.00,0.00
2013-08-30 05:20:00,0,45481,0,0.00,0,0,0,0,34627,50000,4768,47626,0,0,0,0,0.00,0.00,0.00,0.00
2013-08-30 05:30:00,0,34511,0,0.00,0,0,0,0,26878,40248,4112,34892,0,0,0,0,0.00,0.00,0.00,0.00
2013-08-30 05:40:00,0,29319,43,0.20,0,0,0,0,23004,41399,5047,27840,0,61,22,51,0.00,0.55,0.17,0.17
2013-08-30 05:50:00,0,25460,51,0.39,0,0,0,0,18854,34825,5156,23847,51,52,0,51,0.15,0.55,0.14,0.42
2013-08-30 06:00:00,0,19851,52,0.94,0,0,0,0,16956,24344,2164,20044,51,52,0,52,0.55,1.90,0.43,0.68
2013-08-30 06:10:00,0,14814,59,2.36,0,0,0,0,12681,16902,1015,14763,52,61,4,61,0.75,4.00,1.03,2.17
2013-08-30 06:20:00,2,12145,56,0.94,0,2,1,2,10291,13725,977,12122,52,61,4,52,0.40,2.90,0.72,0.62
2013-08-30 06:30:00,2,10448,61,1.89,2,2,0,2,9605,11639,574,10440,61,61,0,61,0.75,3.55,0.78,1.75
2013-08-30 06:40:00,2,10092,60,1.95,2,2,0,2,9156,10830,643,10390,52,61,3,61,1.30,3.05,0.52,1.95
2013-08-30 06:50:00,2,7695,58,2.54,2,2,0,2,6899,8719,598,7588,52,61,4,61,1.70,5.85,1.18,2.12
2013-08-30 07:00:00,2,6889,61,3.97,2,2,0,2,6519,7427,303,6790,61,61,0,61,1.70,6.40,1.37,4.05
2013-08-30 07:10:00,2,7254,61,3.78,2,2,0,2,6877,7803,307,7112,61,61,0,61,1.90,6.50,1.49,3.35
2013-08-30 07:20:00,2,5136,61,3.24,2,2,0,2,3921,7227,1137,4770,61,61,0,61,1.65,5.30,1.28,2.92
2013-08-30 07:30:00,2,4521,61,4.38,2,2,0,2,3772,5020,439,4621,61,61,0,61,2.65,6.80,1.30,4.28
2013-08-30 07:40:00,2,5413,61,6.57,2,2,0,2,4705,6102,491,5338,61,62,0,61,2.75,10.25,2.38,6.40
2013-08-30 07:50:00,2,5972,62,13.02,2,2,0,2,5112,6468,391,6042,61,62,0,62,6.80,24.15,4.70,11.98
2013-08-30 08:00:00,2,5213,62,15.00,2,2,0,2,4781,5720,324,5216,62,62,0,62,10.60,21.25,3.66,15.00
2013-08-30 08:10:00,2,5126,62,9.57,2,2,0,2,4815,5705,305,4962,61,62,0,62,4.00,13.00,3.03,10.45
2013-08-30 08:20:00,2,4705,61,5.42,2,2,0,2,3642,5337,605,5022,61,61,0,61,1.70,9.45,2.25,5.50
2013-08-30 08:30:00,2,4249,62,12.87,2,2,0,2,3885,4631,249,4233,61,62,0,62,6.05,21.70,4.96,11.47
2013-08-30 08:40:00,2,4964,61,8.25,2,2,0,2,4357,5603,383,4942,61,62,0,61,5.25,13.65,2.35,7.38
2013-08-30 08:50:00,2,4295,61,9.54,2,2,0,2,3742,4967,439,4264,61,62,0,61,6.10,13.80,2.59,9.60
2013-08-30 09:00:00,2,3768,62,14.15,2,2,0,2,3563,4095,142,3734,61,62,0,62,5.80,38.20,8.49,11.85
2013-08-30 09:10:00,2,4089,62,12.07,2,2,0,2,3579,4661,338,4022,61,62,0,62,6.20,25.40,5.60,11.25
2013-08-30 09:20:00,2,3155,62,33.49,2,2,0,2,2806,3486,203,3137,62,63,0,62,10.25,57.50,15.42,29.50
2013-08-30 09:30:00,2,3681,62,11.71,2,2,0,2,3313,4026,202,3627,61,62,0,62,5.20,28.25,6.30,11.25
2013-08-30 09:40:00,2,3446,62,14.05,2,2,0,2,3126,3748,191,3492,61,62,0,62,8.15,20.75,3.50,14.30
2013-08-30 09:50:00,2,3290,62,11.21,2,2,0,2,2794,4253,439,3110,61,62,0,62,5.35,16.10,3.42,10.95
2013-08-30 10:00:00,2,4687,61,6.62,2,2,0,2,3666,5264,470,4837,61,62,0,61,2.10,11.70,3.03,6.75
2013-08-30 10:10:00,2,5000,61,8.05,2,2,0,2,4131,5629,414,5096,61,62,0,61,3.10,14.25,3.62,6.38
2013-08-30 10:20:00,2,4021,61,8.80,2,2,0,2,3150,4425,380,4140,61,62,0,61,5.30,14.90,3.56,7.50
2013-08-30 10:30:00,2,3716,62,11.19,2,2,0,2,2943,4569,526,3747,61,62,0,62,3.70,15.50,4.19,12.77
2013-08-30 10:40:00,2,2336,62,11.20,2,2,0,2,1643,3409,632,2082,61,62,0,62,5.90,17.80,3.64,10.15
2013-08-30 10:50:00,2,1517,62,12.45,2,2,0,2,1240,1889,194,1482,61,62,0,62,9.85,14.60,1.35,12.40
2013-08-30 11:00:00,2,1008,61,9.72,2,2,0,2,759,1325,170,1007,61,62,0,61,6.60,16.20,2.49,9.75
2013-08-30 11:10:00,2,753,62,11.80,2,2,0,2,651,934,97,729,61,62,0,62,7.25,20.40,3.53,11.62
2013-08-30 11:20:00,2,1156,62,22.80,2,2,0,2,784,1879,329,1073,62,62,0,62,14.85,35.55,6.34,22.85
2013-08-30 11:30:00,2,1006,62,16.02,2,2,0,2,848,1427,168,971,61,62,0,62,9.15,28.25,5.47,15.70
2013-08-30 11:40:00,2,871,61,9.53,2,2,0,2,708,1273,179,810,61,62,0,61,6.45,13.20,2.17,8.68
2013-08-30 11:50:00,2,886,62,12.15,2,2,0,2,718,1070,92,864,61,62,0,62,5.40,22.95,4.86,11.85
2013-08-30 12:00:00,2,1114,62,15.47,2,2,0,2,938,1308,137,1090,61,62,0,62,9.05,27.25,5.12,14.62
2013-08-30 12:10:00,2,1728,62,20.79,2,2,0,2,1181,2469,391,1738,62,62,0,62,10.50,29.30,5.12,20.70
2013-08-30 12:20:00,2,1218,62,24.26,2,2,0,2,1071,1380,105,1192,62,63,0,62,11.70,43.20,9.41,22.85
2013-08-30 12:30:00,2,1488,62,20.52,2,2,0,2,1068,1866,230,1552,62,62,0,62,10.75,31.20,4.87,20.80
2013-08-30 12:40:00,2,1785,62,23.95,2,2,0,2,1501,2413,264,1743,61,63,0,62,7.95,45.15,10.57,22.00
2013-08-30 12:50:00,2,1770,62,15.97,2,2,0,2,1267,2198,275,1752,62,62,0,62,11.40,24.70,4.46,14.28
2013-08-30 13:00:00,2,2741,62,11.55,2,2,0,2,1858,4271,786,2400,61,62,0,62,5.90,22.85,5.23,10.32
2013-08-30 13:10:00,2,3546,62,25.39,2,2,0,2,1959,5724,1226,3374,62,62,0,62,10.60,39.45,8.98,23.42
2013-08-30 13:20:00,2,2608,62,13.89,2,2,0,2,2067,3500,422,2480,61,62,0,62,6.45,29.60,6.87,11.88
2013-08-30 13:30:00,2,2076,61,9.51,2,2,0,2,1539,2657,342,2013,61,62,0,61,4.95,16.45,3.50,8.93
2013-08-30 13:40:00,2,2979,61,7.67,2,2,0,2,2227,3679,436,2948,61,62,0,61,5.50,12.75,2.63,6.17
2013-08-30 13:50:00,2,3790,61,7.89,2,2,0,2,2846,5152,669,3835,61,62,0,61,5.35,10.55,1.83,7.45
2013-08-30 14:00:00,2,3769,62,12.32,2,2,0,2,3388,4185,246,3746,61,62,0,62,6.75,18.75,3.90,13.03
2013-08-30 14:10:00,2,3798,62,17.25,2,2,0,2,2826,4530,526,3970,62,62,0,62,10.70,26.45,4.74,17.38
2013-08-30 14:20:00,2,2692,62,19.28,2,2,0,2,2267,3106,248,2656,62,62,0,62,12.85,23.50,3.01,20.05
2013-08-30 14:30:00,2,2207,62,25.79,2,2,0,2,1803,2616,207,2160,62,62,0,62,16.90,36.75,5.78,23.85
2013-08-30 14:40:00,2,1760,70,37.21,2,2,0,2,1257,2261,326,1817,62,89,12,63,24.75,46.15,6.51,38.25
2013-08-30 14:50:00,2,1853,81,31.43,2,2,0,2,1412,2388,323,1774,62,89,12,89,19.15,47.15,7.85,29.65
2013-08-30 15:00:00,2,2402,84,25.15,2,2,0,2,1570,3203,490,2357,62,89,11,89,14.35,37.45,6.60,24.90
2013-08-30 15:10:00,2,2705,76,18.10,2,2,0,2,2243,4136,500,2559,62,89,14,76,9.85,25.60,5.41,16.95
2013-08-30 15:20:00,2,2903,70,8.54,2,2,0,2,2444,3460,332,2788,61,89,13,61,4.25,20.95,4.65,6.73
2013-08-30 15:30:00,2,2762,62,12.81,2,2,0,2,1795,3545,584,2972,61,62,0,62,5.50,26.55,6.69,11.95
2013-08-30 15:40:00,2,2344,70,18.56,2,2,0,2,1669,2883,376,2302,62,89,12,62,9.40,31.90,6.70,17.15
2013-08-30 15:50:00,2,2676,61,6.82,2,2,0,2,2188,3038,282,2602,61,61,0,61,4.25,9.75,1.77,6.45
2013-08-30 16:00:00,2,2815,61,4.97,2,2,0,2,2364,3148,206,2849,61,61,0,61,2.05,8.00,1.80,4.55
2013-08-30 16:10:00,2,2814,61,4.15,2,2,0,2,2256,3041,237,2906,61,61,0,61,2.45,7.40,1.78,3.20
2013-08-30 16:20:00,2,2798,58,3.60,2,2,0,2,2260,3345,281,2784,52,61,4,61,2.30,5.50,1.04,3.38
2013-08-30 16:30:00,2,3560,52,1.98,2,2,0,2,2223,5411,1083,3404,51,52,0,52,0.10,5.10,1.77,1.30
2013-08-30 16:40:00,2,3597,51,0.34,2,2,0,2,2883,4741,612,3426,51,51,0,51,0.10,0.60,0.16,0.33
2013-08-30 16:50:00,2,2692,53,1.09,2,2,0,2,2333,3011,215,2675,51,61,4,52,0.75,1.90,0.31,1.02
2013-08-30 17:00:00,2,3431,54,0.82,2,2,0,2,2435,4597,702,3401,51,61,4,52,0.50,1.40,0.30,0.70
2013-08-30 17:10:00,2,4605,52,0.96,2,2,0,2,4208,5039,256,4632,52,52,0,52,0.65,1.30,0.26,0.95
2013-08-30 17:20:00,2,4556,56,1.71,2,2,0,2,3358,5350,685,4867,52,61,4,56,0.80,2.60,0.54,1.85
2013-08-30 17:30:00,2,2897,52,2.31,2,2,0,2,2420,3276,227,2896,52,52,0,52,1.60,2.85,0.36,2.33
2013-08-30 17:40:00,2,2982,58,1.78,2,2,0,2,2758,3259,155,2994,52,61,4,61,1.35,2.40,0.33,1.73
2013-08-30 17:50:00,2,2982,52,1.45,2,2,0,2,2578,3633,350,2962,52,52,0,52,0.85,2.10,0.42,1.45
2013-08-30 18:00:00,2,3796,52,0.38,2,2,0,2,3370,4820,443,3706,51,52,0,52,0.15,0.70,0.18,0.30
2013-08-30 18:10:00,2,3499,39,0.07,2,2,0,2,2437,4001,431,3607,10,51,19,51,0.00,0.15,0.06,0.08
2013-08-30 18:20:00,2,2190,37,0.35,2,2,0,2,1828,2535,222,2202,10,61,22,51,0.00,1.00,0.36,0.25
2013-08-30 18:30:00,2,2572,52,0.81,2,2,0,2,2016,3223,396,2570,51,52,0,52,0.05,2.30,0.71,0.45
2013-08-30 18:40:00,2,2529,51,0.60,2,2,0,2,2306,2854,187,2444,51,52,0,51,0.10,1.30,0.32,0.62
2013-08-30 18:50:00,2,2786,51,0.26,2,2,0,2,2372,3328,293,2789,51,51,0,51,0.10,0.45,0.12,0.23
2013-08-30 19:00:00,2,2648,19,0.14,2,2,0,2,1993,3408,449,2668,10,61,19,10,0.00,1.30,0.39,0.00
2013-08-30 19:10:00,2,2404,53,1.30,2,2,0,2,2042,2828,230,2384,52,61,3,52,0.60,2.25,0.57,1.38
2013-08-30 19:20:00,2,1868,55,4.85,2,2,0,2,1652,1960,92,1890,52,61,4,53,2.75,6.05,0.92,4.90
2013-08-30 19:30:00,2,2001,61,5.35,2,2,0,2,1881,2186,86,1976,61,61,0,61,4.25,8.05,1.17,4.85
2013-08-30 19:40:00,2,2209,56,2.11,2,2,0,2,1914,2558,227,2146,52,61,4,52,0.75,3.05,0.77,2.20
2013-08-30 19:50:00,2,1740,53,5.46,2,2,0,2,1531,2028,129,1750,53,53,0,53,3.95,7.10,0.93,5.30
2013-08-30 20:00:00,2,1926,53,5.11,2,2,0,2,1739,2271,138,1893,53,53,0,53,3.90,6.85,0.83,4.88
2013-08-30 20:10:00,2,2008,60,4.77,2,2,0,2,1838,2362,159,1972,53,61,2,61,2.50,7.50,1.48,4.92
2013-08-30 20:20:00,2,1978,61,4.30,2,2,0,2,1693,2205,137,2002,61,61,0,61,2.45,6.75,1.23,3.85
2013-08-30 20:30:00,2,1910,57,5.27,2,2,0,2,1728,2243,139,1860,53,61,4,57,4.05,6.60,0.89,5.30
2013-08-30 20:40:00,2,2025,61,5.00,2,2,0,2,1744,2343,196,2002,61,61,0,61,2.80,8.20,1.31,4.85
2013-08-30 20:50:00,2,2353,56,2.87,2,2,0,2,1921,2718,237,2276,52,61,4,52,1.80,4.30,0.87,2.75
2013-08-30 21:00:00,2,2046,58,5.96,2,2,0,2,1717,2651,278,1986,52,62,4,61,3.95,11.00,1.97,5.53
2013-08-30 21:10:00,2,1913,61,4.84,2,2,0,2,1747,2155,115,1911,61,62,0,61,2.40,10.30,2.39,3.83
2013-08-30 21:20:00,2,1848,55,3.52,2,2,0,2,1720,2122,110,1843,52,61,4,52,2.35,4.40,0.62,3.55
2013-08-30 21:30:00,2,1766,53,5.19,2,2,0,2,1557,1915,104,1770,53,53,0,53,4.35,6.95,0.73,5.00
2013-08-30 21:40:00,2,1886,58,4.58,2,2,0,2,1763,2055,88,1870,53,61,4,61,4.10,5.55,0.52,4.35
2013-08-30 21:50:00,2,2008,56,3.05,2,2,0,2,1883,2223,88,1999,52,61,4,56,2.25,3.65,0.39,3.10
2013-08-30 22:00:00,2,2071,52,2.49,2,2,0,2,1829,2463,173,2020,52,52,0,52,1.35,3.35,0.66,2.58
2013-08-30 22:10:00,2,2328,56,1.64,2,2,0,2,2113,2572,159,2370,52,61,4,52,0.95,2.90,0.50,1.55
2013-08-30 22:20:00,2,2276,52,1.84,2,2,0,2,2006,2648,201,2230,52,52,0,52,1.20,2.95,0.51,1.73
2013-08-30 22:30:00,2,2058,55,3.42,2,2,0,2,1883,2402,133,2034,52,61,4,52,2.35,5.15,0.74,3.28
2013-08-30 22:40:00,2,2122,53,4.80,2,2,0,2,1918,2281,140,2174,52,53,0,53,3.60,6.15,0.71,4.65
2013-08-30 22:50:00,2,2210,61,5.65,2,2,0,2,1986,2474,133,2192,61,61,0,61,4.80,7.35,0.82,5.57
2013-08-30 23:00:00,2,2114,61,8.68,2,2,0,2,2044,2205,60,2098,61,62,0,61,5.75,12.00,1.83,8.95
2013-08-30 23:10:00,2,2170,62,10.75,2,2,0,2,1978,2531,164,2110,61,62,0,62,7.30,12.35,1.42,11.35
2013-08-30 23:20:00,2,2637,61,6.01,2,2,0,2,2240,3209,294,2578,61,61,0,61,5.25,7.20,0.52,6.00
2013-08-30 23:30:00,2,2474,61,5.33,2,2,0,2,2157,2751,203,2566,61,61,0,61,4.05,7.30,0.89,5.15
2013-08-30 23:40:00,2,5003,61,3.27,2,2,0,2,3020,7248,1457,5058,61,61,0,61,2.10,4.30,0.77,3.38
2013-08-30 23:50:00,2,8029,56,2.50,2,2,0,2,6345,9555,872,8232,52,61,4,52,1.35,3.00,0.48,2.75
